This demonstration page uses our WeatherBlox Daily Observations layout. Learn more.

Left ArrowRight Arrow

Hourly Observations for July 23, 2022

Temp ( °F °C ) Dew Point ( °F °C ) Humidity (%) Winds ( mph kmh ) Pressure ( in mb ) Visibility ( mi km ) Precip ( " mm )
12:53 am 00:53 Mostly Clear 83 28.3 67 19.4 59 59 S 9 15 29.96 1015 10 16 0.00 0.00
1:53 am 01:53 Clear 82 27.8 68 20 63 63 SSE 10 17 29.97 1015 10 16 0.00 0.00
2:53 am 02:53 Partly Cloudy 80 26.7 69 20.6 69 69 SSE 13 20 29.98 1015 10 16 0.00 0.00
3:53 am 03:53 Mostly Clear 79 26.1 70 21.1 74 74 S 10 17 29.98 1015 10 16 0.00 0.00
4:53 am 04:53 Mostly Clear 78 25.6 71 21.7 79 79 SSE 9 15 29.98 1015 10 16 0.00 0.00
5:53 am 05:53 Mostly Clear 77 25 72 22.2 85 85 SSE 8 13 29.98 1015 10 16 0.00 0.00
6:53 am 06:53 Mostly Sunny 77 25 72 22.2 85 85 SSE 12 19 30.00 1016 10 16 0.00 0.00
7:53 am 07:53 Mostly Sunny 78 25.6 73 22.8 85 85 S 10 17 30.01 1016 10 16 0.00 0.00
8:53 am 08:53 Mostly Sunny 81 27.2 73 22.8 77 77 S 10 17 30.03 1017 10 16 0.00 0.00
9:53 am 09:53 Mostly Sunny 85 29.4 72 22.2 65 65 S 13 20 30.02 1017 10 16 0.00 0.00
10:53 am 10:53 Mostly Sunny 88 31.1 71 21.7 57 57 S 9 15 30.02 1017 10 16 0.00 0.00
11:53 am 11:53 Mostly Sunny 91 32.8 68 20 47 47 SSE 13 20 30.00 1016 10 16 0.00 0.00
12:53 pm 12:53 Mostly Sunny 94 34.4 68 20 43 43 VRB 3 6 29.98 1015 10 16 0.00 0.00
1:53 pm 13:53 Partly Cloudy 96 35.6 67 19.4 39 39 S 9 15 29.96 1015 10 16 0.00 0.00
2:53 pm 14:53 Partly Cloudy 97 36.1 66 18.9 36 36 SE 13 20 29.94 1014 10 16 0.00 0.00
3:53 pm 15:53 Partly Cloudy 98 36.7 66 18.9 35 35 SE 12 19 29.92 1013 10 16 0.00 0.00
4:53 pm 16:53 Partly Cloudy 99 37.2 66 18.9 34 34 S 12 19 29.90 1013 10 16 0.00 0.00
5:53 pm 17:53 Partly Cloudy 98 36.7 64 17.8 33 33 S 12 19 29.89 1012 10 16 0.00 0.00
6:53 pm 18:53 Partly Cloudy 98 36.7 64 17.8 33 33 SSE 13 20 29.88 1012 10 16 0.00 0.00
7:53 pm 19:53 Partly Cloudy 97 36.1 63 17.2 33 33 S 9 15 29.88 1012 10 16 0.00 0.00
8:53 pm 20:53 Partly Cloudy 96 35.6 63 17.2 34 34 SSE 8 13 29.89 1012 10 16 0.00 0.00
9:53 pm 21:53 Mostly Clear 94 34.4 63 17.2 36 36 SE 7 11 29.90 1013 10 16 0.00 0.00
10:53 pm 22:53 Mostly Clear 93 33.9 63 17.2 37 37 SSE 12 19 29.92 1013 10 16 0.00 0.00
11:53 pm 23:53 Mostly Clear 91 32.8 65 18.3 42 42 SSE 12 19 29.93 1014 10 16 0.00 0.00

Powered by AerisWeather